Location: Waco, TX
(31.5480°N, 97.1670°W)
Time: 15:58:31
(UTC-05:00)

ISS - Pass Details

Date: 21 August 2019
Orbit: 410 x 421 km, 51.6° (Epoch: 22 August)

Event Time Altitude Azimuth Distance (km) Brightness Sun altitude
Rises 16:54:34 0° 294° (WNW) 2,364 0.7 39.5°
Reaches altitude 10° 16:57:22 10° 269° (W) 1,496 0.3 39.0°
Maximum altitude 16:59:17 15° 234° (SW) 1,246 -0.2 38.6°
Drops below altitude 10° 17:01:13 10° 199° (SSW) 1,490 -0.5 38.2°
Sets 17:03:59 0° 173° (S) 2,347 0.1 37.6°
